Location: Estes Par
(40.3770°N, 105.5210°W)
Time: 12:33:56
(UTC-06:00)

OTV 5 (USA 277) - Pass Details

Date: 08 October 2017
Orbit: 404 x 417 km, 43.0° (Epoch: 07 September)

Event Time Altitude Azimuth Distance (km) Brightness Sun altitude
Rises 19:19:49 0° 206° (SSW) 2,335 ? -9.8°
Reaches altitude 10° 19:22:30 10° 183° (S) 1,476 ? -10.4°
Maximum altitude 19:24:35 16° 144° (SE) 1,183 ? -10.8°
Enters shadow 19:25:42 14° 121° (ESE) 1,276 ? -11.0°
